Weather History for KHJH - August, 2013

Change the Weather History Date:

Thursday, August 29, 2013

  Actual Average Record
Temperature  
Mean Temperature 84 °F -  
Max Temperature 97 °F 87 °F 108 °F (1984)
Min Temperature 71 °F 61 °F 45 °F (1988)
Cooling Degree Days 19    
Growing Degree Days 34 (Base 50)    
Moisture  
Dew Point 68 °F    
Average Humidity 64    
Maximum Humidity 89    
Minimum Humidity 35    
Precipitation  
Precipitation 0.00 in - - ()
Sea Level Pressure  
Sea Level Pressure 29.97 in    
Wind  
Wind Speed 5 mph (South)    
Max Wind Speed 12 mph    
Max Gust Speed 17 mph    
Visibility 10 miles    
Events      
Averages and records for this station are not official NWS values.
T = Trace of Precipitation, MM = Missing Value Source: NWS Daily Summary

Daily Weather History Graph

Daily Weather History Graph

Search for Another Location

Airport or City:

Trip Planner

Search our weather history database for the weather conditions in past years. The results will help you decide how hot, cold, wet, or windy it might be!

Date:

Astronomy

Aug. 29, 2013 Rise Set
Actual Time 6:55 AM CDT 8:06 PM CDT
Civil Twilight 6:27 AM CDT 8:34 PM CDT
Nautical Twilight 5:53 AM CDT 9:07 PM CDT
Astronomical Twilight 5:18 AM CDT 9:42 PM CDT
Moon 12:47 AM CDT (8/29) 3:36 PM CDT (8/29)
Length of Visible Light 14h 06m
Length of Day
13h 10m
Last Quarter, 38% of the Moon is Illuminated
Aug 29
Last Quarter
Sep 5
New
Sep 12
First Quarter
Sep 19
Full
Sep 26
Last Quarter

Hourly Weather History & Observations

Time (CDT) Temp. Heat Index Dew Point Humidity Pressure Visibility Wind Dir Wind Speed Gust Speed Precip Events Conditions
12:15 AM 75.2 °F - 68.2 °F 79% 30.02 in 10.0 mi South 3.5 mph - N/A   Clear
12:35 AM 75.4 °F - 68.5 °F 79% 30.02 in 10.0 mi South 4.6 mph - N/A   Clear
12:55 AM 75.2 °F - 68.7 °F 80% 30.02 in 10.0 mi South 6.9 mph - N/A   Clear
1:15 AM 75.2 °F - 68.5 °F 80% 30.02 in 10.0 mi South 5.8 mph - N/A   Clear
1:35 AM 74.8 °F - 68.5 °F 81% 30.02 in 10.0 mi South 5.8 mph - N/A   Clear
1:55 AM 74.3 °F - 68.5 °F 82% 30.02 in 10.0 mi South 5.8 mph - N/A   Clear
2:15 AM 74.5 °F - 68.9 °F 83% 30.01 in 10.0 mi South 5.8 mph - N/A   Clear
2:35 AM 75.2 °F - 68.9 °F 81% 30.01 in 10.0 mi South 6.9 mph - N/A   Clear
2:55 AM 74.5 °F - 68.9 °F 83% 30.01 in 10.0 mi South 5.8 mph - N/A   Clear
3:15 AM 74.1 °F - 68.9 °F 84% 30.01 in 10.0 mi Calm Calm - N/A   Clear
3:35 AM 72.3 °F - 67.5 °F 85% 30.01 in 10.0 mi Calm Calm - N/A   Clear
3:55 AM 72.5 °F - 67.8 °F 85% 30.01 in 10.0 mi Calm Calm - N/A   Clear
4:15 AM 72.0 °F - 68.0 °F 87% 30.01 in 10.0 mi Calm Calm - N/A   Clear
4:35 AM 71.8 °F - 68.0 °F 88% 30.00 in 10.0 mi Calm Calm - N/A   Clear
4:55 AM 72.5 °F - 68.0 °F 86% 30.00 in 10.0 mi Calm Calm - N/A   Clear
5:15 AM 72.0 °F - 68.0 °F 87% 30.00 in 10.0 mi Calm Calm - N/A   Clear
5:35 AM 72.5 °F - 68.5 °F 87% 30.00 in 10.0 mi Calm Calm - N/A   Scattered Clouds
5:55 AM 71.6 °F - 68.0 °F 88% 30.00 in 10.0 mi Calm Calm - N/A   Clear
6:15 AM 72.5 °F - 68.9 °F 88% 30.00 in 10.0 mi Calm Calm - N/A   Scattered Clouds
6:35 AM 71.6 °F - 68.0 °F 88% 30.00 in 10.0 mi Calm Calm - N/A   Clear
6:55 AM 71.8 °F - 68.4 °F 89% 30.00 in 10.0 mi Calm Calm - N/A   Scattered Clouds
7:15 AM 72.9 °F - 69.3 °F 88% 30.00 in 10.0 mi SE 4.6 mph - N/A   Mostly Cloudy
7:35 AM 74.3 °F - 69.8 °F 86% 30.00 in 10.0 mi SSE 4.6 mph - N/A   Scattered Clouds
7:55 AM 74.8 °F - 69.8 °F 84% 30.00 in 10.0 mi South 5.8 mph - N/A   Scattered Clouds
8:15 AM 76.5 °F - 70.7 °F 82% 30.01 in 10.0 mi South 3.5 mph - N/A   Scattered Clouds
8:35 AM 76.8 °F - 70.7 °F 81% 30.01 in 10.0 mi SSE 3.5 mph - N/A   Scattered Clouds
8:55 AM 78.8 °F - 71.2 °F 78% 30.01 in 10.0 mi South 4.6 mph - N/A   Clear
9:15 AM 80.6 °F 84.2 °F 70.7 °F 72% 30.01 in 10.0 mi South 8.1 mph - N/A   Clear
9:35 AM 82.4 °F 86.3 °F 70.2 °F 66% 30.01 in 10.0 mi SSW 6.9 mph - N/A   Clear
9:55 AM 82.6 °F 86.8 °F 70.5 °F 67% 30.01 in 10.0 mi South 9.2 mph - N/A   Clear
10:15 AM 84.2 °F 88.7 °F 70.2 °F 63% 30.01 in 10.0 mi SSE 5.8 mph - N/A   Clear
10:35 AM 85.6 °F 90.4 °F 70.5 °F 60% 30.01 in 10.0 mi South 8.1 mph - N/A   Clear
10:55 AM 85.8 °F 90.4 °F 70.2 °F 59% 30.01 in 10.0 mi South 8.1 mph - N/A   Clear
11:15 AM 86.5 °F 91.4 °F 70.3 °F 58% 30.01 in 10.0 mi SSE 5.8 mph - N/A   Clear
11:35 AM 87.4 °F 92.7 °F 70.3 °F 57% 30.01 in 10.0 mi South 5.8 mph - N/A   Clear
12:15 PM 90.5 °F 96.5 °F 70.7 °F 52% 29.99 in 10.0 mi SE 5.8 mph - N/A   Clear
12:55 PM 91.9 °F 96.9 °F 69.3 °F 47% 29.98 in 10.0 mi SSE 8.1 mph - N/A   Clear
1:15 PM 93.0 °F 98.4 °F 69.6 °F 46% 29.98 in 10.0 mi SSE 9.2 mph - N/A   Clear
1:35 PM 93.7 °F 98.8 °F 68.7 °F 44% 29.98 in 10.0 mi SSE 10.4 mph - N/A   Clear
1:55 PM 94.3 °F 99.3 °F 68.5 °F 43% 29.97 in 10.0 mi SSE 10.4 mph - N/A   Clear
2:15 PM 94.6 °F 98.3 °F 66.9 °F 40% 29.97 in 10.0 mi SSE 10.4 mph 16.1 mph N/A   Clear
2:35 PM 95.4 °F 99.7 °F 67.6 °F 40% 29.96 in 10.0 mi SSE 11.5 mph 17.3 mph N/A   Clear
2:55 PM 95.7 °F 99.2 °F 66.7 °F 38% 29.96 in 10.0 mi South 11.5 mph 16.1 mph N/A   Clear
3:15 PM 96.4 °F 100.0 °F 66.0 °F 37% 29.96 in 10.0 mi South 11.5 mph 16.1 mph N/A   Clear
3:35 PM 96.8 °F 99.5 °F 65.3 °F 35% 29.95 in 10.0 mi South 8.1 mph 17.3 mph N/A   Clear
3:55 PM 96.8 °F 100.7 °F 66.4 °F 37% 29.94 in 10.0 mi South 10.4 mph - N/A   Clear
4:15 PM 97.3 °F 100.5 °F 65.3 °F 35% 29.94 in 10.0 mi SSW 9.2 mph - N/A   Clear
4:35 PM 97.3 °F 100.5 °F 65.3 °F 35% 29.94 in 10.0 mi South 9.2 mph - N/A   Clear
4:55 PM 96.6 °F 100.3 °F 66.2 °F 37% 29.93 in 10.0 mi South 9.2 mph - N/A   Clear
5:15 PM 96.8 °F 100.7 °F 66.2 °F 37% 29.93 in 10.0 mi South 8.1 mph - N/A   Clear
5:35 PM 96.6 °F 100.3 °F 66.2 °F 37% 29.93 in 10.0 mi South 6.9 mph - N/A   Clear
5:55 PM 96.3 °F 99.7 °F 66.4 °F 37% 29.92 in 10.0 mi South 5.8 mph - N/A   Clear
6:15 PM 95.7 °F 99.2 °F 66.0 °F 38% 29.92 in 10.0 mi South 8.1 mph - N/A   Clear
6:35 PM 94.8 °F 98.7 °F 66.7 °F 40% 29.92 in 10.0 mi South 5.8 mph - N/A   Clear
6:55 PM 93.2 °F 96.7 °F 67.3 °F 42% 29.92 in 10.0 mi South 5.8 mph - N/A   Clear
7:15 PM 91.4 °F 95.4 °F 68.0 °F 46% 29.92 in 10.0 mi SSE 5.8 mph - N/A   Clear
7:35 PM 88.7 °F 93.0 °F 69.3 °F 52% 29.92 in 10.0 mi SSE 4.6 mph - N/A   Clear
7:55 PM 86.2 °F 90.4 °F 69.1 °F 57% 29.92 in 10.0 mi SSE 5.8 mph - N/A   Clear
8:15 PM 83.8 °F 87.5 °F 68.9 °F 61% 29.93 in 10.0 mi SSE 5.8 mph - N/A   Clear
8:35 PM 81.9 °F 85.2 °F 69.3 °F 65% 29.93 in 10.0 mi SSE 3.5 mph - N/A   Clear
8:55 PM 81.7 °F 84.7 °F 68.5 °F 64% 29.93 in 10.0 mi SSE 4.6 mph - N/A   Clear
9:15 PM 80.8 °F 83.5 °F 68.0 °F 65% 29.93 in 10.0 mi South 3.5 mph - N/A   Clear
9:35 PM 80.6 °F 83.1 °F 67.3 °F 64% 29.93 in 10.0 mi SSE 5.8 mph - N/A   Clear
9:55 PM 81.5 °F 83.7 °F 66.2 °F 60% 29.93 in 10.0 mi South 5.8 mph - N/A   Clear
10:15 PM 81.0 °F 83.2 °F 66.6 °F 61% 29.93 in 10.0 mi South 8.1 mph - N/A   Clear
10:35 PM 79.7 °F - 66.7 °F 64% 29.93 in 10.0 mi South 5.8 mph - N/A   Clear
10:55 PM 78.8 °F - 66.7 °F 66% 29.93 in 10.0 mi South 6.9 mph - N/A   Clear
11:15 PM 78.1 °F - 66.6 °F 68% 29.93 in 10.0 mi South 5.8 mph - N/A   Clear
11:35 PM 77.0 °F - 66.6 °F 70% 29.93 in 10.0 mi South 4.6 mph - N/A   Clear
11:55 PM 76.8 °F - 66.2 °F 70% 29.93 in 10.0 mi South 4.6 mph - N/A   Clear